Location: Unspecified
(36.9500°N, 0.0000°E)
Time: 11:28:30
(UTC+00:00)

Vanguard 1 Rocket - All Passes

Search period start: 04 April 2026 00:00
Search period end: 14 April 2026 00:00
Orbit: 654 x 4213 km, 34.3° (Epoch: 28 March)

Date Brightness Start Highest point End Pass type
(mag) Time Alt. Az. Time Alt. Az. Time Alt. Az.
4 Apr - 00:56:11 10° WSW 01:17:28 64° SSE 01:28:36 10° E visible
4 Apr - 03:29:42 10° W 03:45:20 78° S 03:53:00 10° E visible
4 Apr - 06:01:48 10° W 06:10:55 46° SSW 06:16:12 10° SE daylight
4 Apr - 21:14:19 10° S 21:32:46 26° SE 21:47:10 10° E visible
4 Apr - 23:40:03 10° SW 00:02:51 54° SSE 00:16:09 10° E visible
5 Apr - 02:12:40 10° WSW 02:31:49 77° S 02:41:16 10° E visible
5 Apr - 04:46:09 10° W 04:58:40 66° SSW 05:05:06 10° ESE visible
5 Apr - 07:17:38 10° W 07:22:45 20° SW 07:26:32 10° S daylight
5 Apr - 20:05:01 10° SSE 20:17:41 16° SE 20:29:02 10° ESE visible
5 Apr - 22:25:05 10° SSW 22:47:47 43° SSE 23:02:58 10° E visible
6 Apr - 00:55:32 10° WSW 01:17:40 70° SSE 01:29:14 10° E visible
6 Apr - 03:29:38 10° W 03:45:45 77° S 03:53:39 10° ESE visible
6 Apr - 06:02:04 10° W 06:11:10 39° SSW 06:16:31 10° SE daylight
6 Apr - 21:11:43 10° SSW 21:32:31 32° SE 21:48:38 10° E visible
6 Apr - 23:39:00 10° SW 00:02:53 61° SSE 00:16:47 10° E visible
7 Apr - 02:12:25 10° W 02:32:09 80° S 02:41:53 10° E visible
7 Apr - 04:46:12 10° W 04:59:00 60° SSW 05:05:38 10° ESE visible
7 Apr - 07:18:49 10° WSW 07:22:44 15° SW 07:25:51 10° SSW daylight
7 Apr - 20:00:42 10° S 20:17:22 22° SE 20:32:06 10° E visible
7 Apr - 22:23:36 10° SW 22:47:38 50° SSE 23:03:42 10° E visible
8 Apr - 00:55:02 10° WSW 01:17:51 75° S 01:29:49 10° E visible
8 Apr - 03:29:34 10° W 03:46:08 75° SSW 03:54:15 10° ESE visible
8 Apr - 06:02:25 10° W 06:11:16 32° SW 06:16:40 10° SSE daylight
8 Apr - 18:55:57 10° SE 19:02:28 11° SE 19:08:53 10° ESE visible
8 Apr - 21:09:42 10° SSW 21:32:11 39° SE 21:49:39 10° E visible
8 Apr - 23:38:12 10° WSW 00:02:54 68° SSE 00:17:21 10° E visible
9 Apr - 02:12:13 10° W 02:32:29 80° S 02:42:31 10° E visible
9 Apr - 04:46:15 10° W 04:59:15 53° SSW 05:06:03 10° SE visible
9 Apr - 07:21:25 10° WSW 07:22:36 10° SW 07:23:44 10° SW daylight
9 Apr - 19:57:43 10° S 20:16:53 28° SE 20:33:58 10° E visible
9 Apr - 22:22:27 10° SW 22:47:26 57° SSE 23:04:18 10° E visible
10 Apr - 00:54:40 10° WSW 01:18:03 79° S 01:30:24 10° E visible
10 Apr - 03:29:28 10° W 03:46:27 70° SSW 03:54:48 10° ESE visible
10 Apr - 06:02:53 10° W 06:11:14 26° SW 06:16:34 10° SSE daylight
10 Apr - 18:49:00 10° SSE 19:01:59 17° SE 19:14:44 10° E visible
10 Apr - 21:08:07 10° SSW 21:31:46 46° SE 21:50:25 10° E visible
10 Apr - 23:37:36 10° WSW 00:02:54 73° SSE 00:17:52 10° E visible
11 Apr - 02:12:03 10° W 02:32:47 80° S 02:43:06 10° ESE visible
11 Apr - 04:46:18 10° W 04:59:22 46° SSW 05:06:21 10° SE visible
11 Apr - 19:55:30 10° SSW 20:16:19 34° SE 20:35:12 10° E visible
11 Apr - 22:21:34 10° SW 22:47:13 64° SSE 23:04:48 10° E visible
12 Apr - 00:54:24 10° W 01:18:15 81° S 01:30:58 10° E visible
12 Apr - 03:29:22 10° W 03:46:40 65° SSW 03:55:18 10° ESE visible
12 Apr - 06:03:35 10° W 06:11:04 21° SW 06:16:11 10° S daylight
12 Apr - 18:45:13 10° S 19:01:20 22° SE 19:17:33 10° E visible
12 Apr - 21:06:55 10° SW 21:31:19 53° SSE 21:50:59 10° E visible
12 Apr - 23:37:10 10° WSW 00:02:55 77° SSE 00:18:23 10° E visible
13 Apr - 02:11:53 10° W 02:33:01 77° SSW 02:43:39 10° ESE visible
13 Apr - 04:46:24 10° W 04:59:20 39° SW 05:06:30 10° SSE visible
13 Apr - 17:42:06 10° SE 17:46:57 11° SE 17:51:54 10° ESE daylight
13 Apr - 19:53:49 10° SSW 20:15:39 40° SE 20:36:02 10° E visible
13 Apr - 22:20:55 10° WSW 22:47:00 70° SSE 23:05:15 10° E visible
